Observation data for Ralls on 12/08/2018      Previous  Date       Current Mesonet Observations  Soil Data  Daily Summary Page  Observations in Plain Language
KRLS 080600Z 01003KT M00/M02 A3027 RMK A01 T10041015  RH  093%=      5-min Rain = 0
KRLS 080605Z 02003KT M00/M02 A3027 RMK A01 T10041016  RH  093%=      5-min Rain = 0
KRLS 080610Z 02003KT M00/M02 A3027 RMK A01 T10041016  RH  093%=      5-min Rain = 0
KRLS 080615Z 01003KT M00/M02 A3026 RMK A01 T10041016  RH  093%=      5-min Rain = 0
KRLS 080620Z 01003KT M01/M02 A3026 RMK A01 T10051016  RH  093%=      5-min Rain = 0
KRLS 080625Z 01003KT M01/M02 A3026 RMK A01 T10051016  RH  093%=      5-min Rain = 0
KRLS 080630Z 01003KT M01/M02 A3026 RMK A01 T10051016  RH  093%=      5-min Rain = 0
KRLS 080635Z 01003KT M01/M02 A3026 RMK A01 T10051017  RH  093%=      5-min Rain = 0
KRLS 080640Z 02003KT M01/M02 A3026 RMK A01 T10051017  RH  093%=      5-min Rain = 0
KRLS 080645Z 02003KT M01/M02 A3026 RMK A01 T10051017  RH  093%=      5-min Rain = 0
KRLS 080650Z 02003KT M01/M02 A3026 RMK A01 T10051017  RH  092%=      5-min Rain = 0
KRLS 080655Z 02003KT M01/M02 A3026 RMK A01 T10061018  RH  092%=      5-min Rain = 0
KRLS 080700Z 02003KT M01/M02 A3026 RMK A01 T10061018  RH  092%=      5-min Rain = 0
KRLS 080705Z 01003KT M01/M02 A3026 RMK A01 T10061018  RH  092%=      5-min Rain = 0
KRLS 080710Z 02003KT M01/M02 A3026 RMK A01 T10061019  RH  092%=      5-min Rain = 0
KRLS 080715Z 02002KT M01/M02 A3026 RMK A01 T10071019  RH  092%=      5-min Rain = 0
KRLS 080720Z 01002KT M01/M02 A3026 RMK A01 T10071019  RH  092%=      5-min Rain = 0
KRLS 080725Z 01003KT M01/M02 A3026 RMK A01 T10081020  RH  092%=      5-min Rain = 0
KRLS 080730Z 01003KT M01/M02 A3026 RMK A01 T10081020  RH  093%=      5-min Rain = 0
KRLS 080735Z 01003KT M01/M02 A3026 RMK A01 T10081020  RH  093%=      5-min Rain = 0
KRLS 080740Z 01003KT M01/M02 A3026 RMK A01 T10081020  RH  093%=      5-min Rain = 0
KRLS 080745Z 01002KT M01/M02 A3026 RMK A01 T10091019  RH  093%=      5-min Rain = 0
KRLS 080750Z 01002KT M01/M02 A3026 RMK A01 T10091019  RH  093%=      5-min Rain = 0
KRLS 080755Z 01003KT M01/M02 A3026 RMK A01 T10091019  RH  094%=      5-min Rain = 0
KRLS 080800Z 01003KT M01/M02 A3026 RMK A01 T10091019  RH  094%=      5-min Rain = 0
KRLS 080805Z 01003KT M01/M02 A3026 RMK A01 T10101019  RH  094%=      5-min Rain = 0
KRLS 080810Z 01003KT M01/M02 A3026 RMK A01 T10101020  RH  094%=      5-min Rain = 0
KRLS 080815Z 01003KT M01/M02 A3026 RMK A01 T10111020  RH  094%=      5-min Rain = 0
KRLS 080820Z 01003KT M01/M02 A3026 RMK A01 T10111020  RH  094%=      5-min Rain = 0
KRLS 080825Z 01003KT M01/M02 A3025 RMK A01 T10111020  RH  094%=      5-min Rain = 0
KRLS 080830Z 01003KT M01/M02 A3025 RMK A01 T10111020  RH  094%=      5-min Rain = 0
KRLS 080835Z 01003KT M01/M02 A3025 RMK A01 T10111020  RH  094%=      5-min Rain = 0
KRLS 080840Z 01003KT M01/M02 A3025 RMK A01 T10111020  RH  094%=      5-min Rain = 0
KRLS 080845Z 01003KT M01/M02 A3025 RMK A01 T10111020  RH  095%=      5-min Rain = 0
KRLS 080850Z 01003KT M01/M02 A3025 RMK A01 T10111020  RH  095%=      5-min Rain = 0
KRLS 080855Z 01003KT M01/M02 A3025 RMK A01 T10121020  RH  095%=      5-min Rain = 0
KRLS 080900Z 01003KT M01/M02 A3025 RMK A01 T10121020  RH  095%=      5-min Rain = 0
KRLS 080905Z 01003KT M01/M02 A3025 RMK A01 T10121020  RH  095%=      5-min Rain = 0
KRLS 080910Z 01003KT M01/M02 A3025 RMK A01 T10121021  RH  095%=      5-min Rain = 0
KRLS 080915Z 01003KT M01/M02 A3025 RMK A01 T10131021  RH  095%=      5-min Rain = 0
KRLS 080920Z 01003KT M01/M02 A3025 RMK A01 T10131021  RH  095%=      5-min Rain = 0
KRLS 080925Z 01004KT M01/M02 A3025 RMK A01 T10131022  RH  095%=      5-min Rain = 0
KRLS 080930Z 02004KT M01/M02 A3024 RMK A01 T10141022  RH  095%=      5-min Rain = 0
KRLS 080935Z 02003KT M01/M02 A3024 RMK A01 T10141022  RH  095%=      5-min Rain = 0
KRLS 080940Z 01003KT M01/M02 A3024 RMK A01 T10141022  RH  095%=      5-min Rain = 0
KRLS 080945Z 01003KT M01/M02 A3024 RMK A01 T10141023  RH  095%=      5-min Rain = 0
KRLS 080950Z 01004KT M02/M02 A3024 RMK A01 T10151023  RH  095%=      5-min Rain = 0
KRLS 080955Z 01003KT M02/M02 A3024 RMK A01 T10151023  RH  095%=      5-min Rain = 0
KRLS 081000Z 01003KT M02/M02 A3024 RMK A01 T10151023  RH  095%=      5-min Rain = 0
KRLS 081005Z 01003KT M02/M02 A3023 RMK A01 T10151023  RH  095%=      5-min Rain = 0
KRLS 081010Z 02003KT M02/M02 A3023 RMK A01 T10151023  RH  095%=      5-min Rain = 0
KRLS 081015Z 02003KT M02/M02 A3023 RMK A01 T10151023  RH  095%=      5-min Rain = 0
KRLS 081020Z 01003KT M02/M02 A3023 RMK A01 T10151023  RH  095%=      5-min Rain = 0
KRLS 081025Z 02003KT M02/M02 A3023 RMK A01 T10151023  RH  095%=      5-min Rain = 0
KRLS 081030Z 02003KT M02/M02 A3023 RMK A01 T10151024  RH  095%=      5-min Rain = 0
KRLS 081035Z 02003KT M02/M02 A3023 RMK A01 T10151024  RH  095%=      5-min Rain = 0
KRLS 081040Z 02003KT M02/M02 A3023 RMK A01 T10151024  RH  095%=      5-min Rain = 0
KRLS 081045Z 01003KT M02/M02 A3023 RMK A01 T10151023  RH  095%=      5-min Rain = 0
KRLS 081050Z 01003KT M02/M02 A3023 RMK A01 T10151023  RH  095%=      5-min Rain = 0
KRLS 081055Z 01003KT M02/M02 A3023 RMK A01 T10151023  RH  095%=      5-min Rain = 0
KRLS 081100Z 01003KT M02/M02 A3023 RMK A01 T10151023  RH  095%=      5-min Rain = 0
KRLS 081105Z 01003KT M02/M02 A3023 RMK A01 T10151023  RH  095%=      5-min Rain = 0
KRLS 081110Z 01003KT M02/M02 A3023 RMK A01 T10151024  RH  095%=      5-min Rain = 0
KRLS 081115Z 01003KT M02/M02 A3024 RMK A01 T10151024  RH  095%=      5-min Rain = 0
KRLS 081120Z 01003KT M02/M02 A3024 RMK A01 T10151024  RH  095%=      5-min Rain = 0
KRLS 081125Z 01003KT M02/M02 A3024 RMK A01 T10151023  RH  095%=      5-min Rain = 0
KRLS 081130Z 01003KT M02/M02 A3024 RMK A01 T10151023  RH  095%=      5-min Rain = 0
KRLS 081135Z 01003KT M02/M02 A3024 RMK A01 T10151024  RH  095%=      5-min Rain = 0
KRLS 081140Z 01003KT M02/M02 A3024 RMK A01 T10151024  RH  095%=      5-min Rain = 0
KRLS 081145Z 02003KT M02/M02 A3024 RMK A01 T10151024  RH  095%=      5-min Rain = 0
KRLS 081150Z 02003KT M02/M02 A3024 RMK A01 T10161024  RH  095%=      5-min Rain = 0
KRLS 081155Z 02003KT M02/M02 A3025 RMK A01 T10161024  RH  095%=      5-min Rain = 0
KRLS 081200Z 02003KT M02/M02 A3025 RMK A01 T10161024  RH  095%=      5-min Rain = 0
KRLS 081205Z 02003KT M02/M02 A3025 RMK A01 T10161024  RH  095%=      5-min Rain = 0
KRLS 081210Z 02003KT M02/M03 A3025 RMK A01 T10161025  RH  095%=      5-min Rain = 0
KRLS 081215Z 02003KT M02/M03 A3025 RMK A01 T10161025  RH  095%=      5-min Rain = 0
KRLS 081220Z 02003KT M02/M03 A3025 RMK A01 T10161025  RH  095%=      5-min Rain = 0
KRLS 081225Z 02003KT M02/M03 A3025 RMK A01 T10171025  RH  095%=      5-min Rain = 0
KRLS 081230Z 02003KT M02/M03 A3025 RMK A01 T10171025  RH  095%=      5-min Rain = 0
KRLS 081235Z 01002KT M02/M03 A3025 RMK A01 T10171025  RH  095%=      5-min Rain = 0
KRLS 081240Z 01002KT M02/M03 A3026 RMK A01 T10171025  RH  095%=      5-min Rain = 0
KRLS 081245Z 01002KT M02/M03 A3026 RMK A01 T10171025  RH  095%=      5-min Rain = 0
KRLS 081250Z 01003KT M02/M03 A3026 RMK A01 T10171026  RH  095%=      5-min Rain = 0
KRLS 081255Z 02003KT M02/M03 A3026 RMK A01 T10171026  RH  095%=      5-min Rain = 0
KRLS 081300Z 02003KT M02/M03 A3026 RMK A01 T10181026  RH  095%=      5-min Rain = 0
KRLS 081305Z 01002KT M02/M03 A3027 RMK A01 T10181026  RH  095%=      5-min Rain = 0
KRLS 081310Z 01002KT M02/M03 A3027 RMK A01 T10181026  RH  095%=      5-min Rain = 0
KRLS 081315Z 01002KT M02/M03 A3027 RMK A01 T10181026  RH  095%=      5-min Rain = 0
KRLS 081320Z 00002KT M02/M03 A3028 RMK A01 T10181026  RH  095%=      5-min Rain = 0
KRLS 081325Z 01002KT M02/M03 A3028 RMK A01 T10181026  RH  095%=      5-min Rain = 0
KRLS 081330Z 00002KT M02/M03 A3028 RMK A01 T10191028  RH  095%=      5-min Rain = 0
KRLS 081335Z 36002KT M02/M03 A3028 RMK A01 T10201029  RH  095%=      5-min Rain = 0
KRLS 081340Z 00003KT M02/M03 A3028 RMK A01 T10211030  RH  094%=      5-min Rain = 0
KRLS 081345Z 36002KT M02/M03 A3028 RMK A01 T10221030  RH  094%=      5-min Rain = 0
KRLS 081350Z 36002KT M02/M03 A3028 RMK A01 T10221030  RH  094%=      5-min Rain = 0
KRLS 081355Z 00002KT M02/M03 A3028 RMK A01 T10221031  RH  094%=      5-min Rain = 0
KRLS 081400Z 00002KT M02/M03 A3028 RMK A01 T10221031  RH  094%=      5-min Rain = 0
KRLS 081405Z 00002KT M02/M03 A3029 RMK A01 T10221031  RH  094%=      5-min Rain = 0
KRLS 081410Z 36002KT M02/M03 A3029 RMK A01 T10211030  RH  094%=      5-min Rain = 0
KRLS 081415Z 36002KT M02/M03 A3029 RMK A01 T10211030  RH  094%=      5-min Rain = 0
KRLS 081420Z 35002KT M02/M03 A3029 RMK A01 T10211030  RH  094%=      5-min Rain = 0
KRLS 081425Z 35002KT M02/M03 A303 RMK A01 T10201029  RH  094%=      5-min Rain = 0
KRLS 081430Z 34002KT M02/M03 A303 RMK A01 T10201029  RH  094%=      5-min Rain = 0
KRLS 081435Z 35002KT M02/M03 A303 RMK A01 T10191028  RH  094%=      5-min Rain = 0
KRLS 081440Z 35002KT M02/M03 A303 RMK A01 T10191028  RH  094%=      5-min Rain = 0
KRLS 081445Z 35002KT M02/M03 A303 RMK A01 T10181027  RH  094%=      5-min Rain = 0
KRLS 081450Z 35002KT M02/M03 A303 RMK A01 T10181027  RH  094%=      5-min Rain = 0
KRLS 081455Z 35002KT M02/M03 A303 RMK A01 T10181026  RH  094%=      5-min Rain = 0
KRLS 081500Z 35002KT M02/M03 A303 RMK A01 T10171026  RH  094%=      5-min Rain = 0
KRLS 081505Z 35002KT M02/M03 A303 RMK A01 T10171025  RH  094%=      5-min Rain = 0
KRLS 081510Z 35002KT M02/M03 A303 RMK A01 T10161025  RH  094%=      5-min Rain = 0
KRLS 081515Z 36002KT M02/M02 A3031 RMK A01 T10161024  RH  094%=      5-min Rain = 0
KRLS 081520Z 36002KT M02/M02 A3031 RMK A01 T10151024  RH  094%=      5-min Rain = 0
KRLS 081525Z 36002KT M02/M02 A3031 RMK A01 T10151024  RH  094%=      5-min Rain = 0
KRLS 081530Z 36002KT M02/M02 A3031 RMK A01 T10151023  RH  095%=      5-min Rain = 0
KRLS 081535Z 36002KT M01/M02 A3031 RMK A01 T10141023  RH  095%=      5-min Rain = 0
KRLS 081540Z 00002KT M01/M02 A3031 RMK A01 T10141023  RH  095%=      5-min Rain = 0
KRLS 081545Z 36002KT M01/M02 A3031 RMK A01 T10141023  RH  095%=      5-min Rain = 0
KRLS 081550Z 00002KT M01/M02 A3031 RMK A01 T10141023  RH  095%=      5-min Rain = 0
KRLS 081555Z 36002KT M01/M02 A3032 RMK A01 T10141023  RH  095%=      5-min Rain = 0
KRLS 081600Z 36002KT M01/M02 A3032 RMK A01 T10141023  RH  095%=      5-min Rain = 0
KRLS 081605Z 36002KT M01/M02 A3032 RMK A01 T10141023  RH  095%=      5-min Rain = 0
KRLS 081610Z 36002KT M01/M02 A3032 RMK A01 T10131022  RH  095%=      5-min Rain = 0
KRLS 081615Z 36002KT M01/M02 A3032 RMK A01 T10131021  RH  095%=      5-min Rain = 0
KRLS 081620Z 36002KT M01/M02 A3032 RMK A01 T10121020  RH  095%=      5-min Rain = 0
KRLS 081625Z 36002KT M01/M02 A3032 RMK A01 T10121020  RH  095%=      5-min Rain = 0
KRLS 081630Z 36002KT M01/M02 A3032 RMK A01 T10111020  RH  095%=      5-min Rain = 0
KRLS 081635Z 00002KT M01/M02 A3032 RMK A01 T10101019  RH  095%=      5-min Rain = 0
KRLS 081640Z 00002KT M01/M02 A3032 RMK A01 T10091017  RH  095%=      5-min Rain = 0
KRLS 081645Z 01002KT M01/M02 A3032 RMK A01 T10091017  RH  095%=      5-min Rain = 0
KRLS 081650Z 00002KT M01/M02 A3032 RMK A01 T10081016  RH  095%=      5-min Rain = 0
KRLS 081655Z 36002KT M01/M02 A3032 RMK A01 T10071015  RH  095%=      5-min Rain = 0
KRLS 081700Z 35002KT M01/M02 A3032 RMK A01 T10061015  RH  095%=      5-min Rain = 0
KRLS 081705Z 35002KT M01/M01 A3032 RMK A01 T10061014  RH  095%=      5-min Rain = 0
KRLS 081710Z 35002KT M01/M02 A3032 RMK A01 T10061015  RH  095%=      5-min Rain = 0
KRLS 081715Z 35002KT M01/M01 A3032 RMK A01 T10061014  RH  095%=      5-min Rain = 0
KRLS 081720Z 35003KT M01/M02 A3032 RMK A01 T10061015  RH  095%=      5-min Rain = 0
KRLS 081725Z 35002KT M01/M01 A3032 RMK A01 T10061014  RH  095%=      5-min Rain = 0
KRLS 081730Z 36003KT M01/M02 A3032 RMK A01 T10071015  RH  095%=      5-min Rain = 0.01
KRLS 081735Z 00003KT M01/M01 A3032 RMK A01 T10061014  RH  095%=      5-min Rain = 0
KRLS 081740Z 00003KT M01/M02 A3032 RMK A01 T10071016  RH  095%=      5-min Rain = 0.01
KRLS 081745Z 36003KT M01/M02 A3032 RMK A01 T10071016  RH  095%=      5-min Rain = 0
KRLS 081750Z 35003KT M01/M01 A3032 RMK A01 T10061014  RH  095%=      5-min Rain = 0
KRLS 081755Z 36003KT M00/M01 A3032 RMK A01 T10041013  RH  095%=      5-min Rain = 0
KRLS 081800Z 01002KT M00/M01 A3032 RMK A01 T10021011  RH  095%=      5-min Rain = 0.01
KRLS 081805Z 01010KT M00/M01 A3031 RMK A01 T10031012  RH  095%=      5-min Rain = 0
KRLS 081810Z 01010KT M00/M01 A3031 RMK A01 T10041012  RH  095%=      5-min Rain = 0
KRLS 081815Z 01010KT M00/M01 A3031 RMK A01 T10031012  RH  095%=      5-min Rain = 0.01
KRLS 081820Z 01010KT M01/M01 A3031 RMK A01 T10051013  RH  095%=      5-min Rain = 0
KRLS 081825Z 01010KT M01/M02 A303 RMK A01 T10061015  RH  095%=      5-min Rain = 0.01
KRLS 081830Z 01009KT M01/M02 A303 RMK A01 T10061015  RH  095%=      5-min Rain = 0.01
KRLS 081835Z 01009KT M01/M02 A303 RMK A01 T10071015  RH  095%=      5-min Rain = 0
KRLS 081840Z 01009KT M01/M02 A3029 RMK A01 T10071016  RH  095%=      5-min Rain = 0.01
KRLS 081845Z 01008KT M01/M02 A3029 RMK A01 T10071016  RH  095%=      5-min Rain = 0.02
KRLS 081850Z 01007KT M01/M02 A3029 RMK A01 T10061015  RH  094%=      5-min Rain = 0.01
KRLS 081855Z 01007KT M01/M02 A3028 RMK A01 T10061015  RH  094%=      5-min Rain = 0.01
KRLS 081900Z 01007KT M01/M01 A3028 RMK A01 T10051014  RH  094%=      5-min Rain = 0.01
KRLS 081905Z 01007KT M00/M01 A3028 RMK A01 T10041013  RH  094%=      5-min Rain = 0.02
KRLS 081910Z 01007KT M00/M01 A3028 RMK A01 T10031012  RH  094%=      5-min Rain = 0.01
KRLS 081915Z 01006KT M00/M01 A3028 RMK A01 T10021012  RH  094%=      5-min Rain = 0.02
KRLS 081920Z 01007KT M00/M01 A3027 RMK A01 T10021012  RH  094%=      5-min Rain = 0.01
KRLS 081925Z 01007KT M00/M01 A3027 RMK A01 T10021012  RH  094%=      5-min Rain = 0.02
KRLS 081930Z 01006KT M00/M01 A3027 RMK A01 T10011011  RH  094%=      5-min Rain = 0.02
KRLS 081935Z 35006KT M00/M01 A3027 RMK A01 T10011011  RH  094%=      5-min Rain = 0.02
KRLS 081940Z 34007KT M00/M01 A3026 RMK A01 T10031013  RH  094%=      5-min Rain = 0.01
KRLS 081945Z 00006KT M00/M01 A3026 RMK A01 T10021011  RH  094%=      5-min Rain = 0.02
KRLS 081950Z 35007KT M00/M01 A3026 RMK A01 T10021012  RH  094%=      5-min Rain = 0.01
KRLS 081955Z 35007KT M00/M01 A3026 RMK A01 T10031013  RH  094%=      5-min Rain = 0.01
KRLS 082000Z 35006KT M00/M01 A3026 RMK A01 T10031013  RH  094%=      5-min Rain = 0.01
KRLS 082005Z 35006KT M00/M01 A3026 RMK A01 T10031012  RH  094%=      5-min Rain = 0.01
KRLS 082010Z 35007KT M00/M01 A3026 RMK A01 T10031013  RH  094%=      5-min Rain = 0.01
KRLS 082015Z 35007KT M00/M01 A3026 RMK A01 T10021013  RH  094%=      5-min Rain = 0.01
KRLS 082020Z 34008KT M00/M01 A3026 RMK A01 T10021013  RH  093%=      5-min Rain = 0.01
KRLS 082025Z 34008KT M00/M01 A3026 RMK A01 T10021013  RH  093%=      5-min Rain = 0.02
KRLS 082030Z 33007KT M00/M01 A3026 RMK A01 T10011012  RH  093%=      5-min Rain = 0
KRLS 082035Z 34007KT 00/01 A3026 RMK A01 T00000-11  RH  093%=      5-min Rain = 0.01
KRLS 082040Z 34007KT 00/01 A3026 RMK A01 T00000-11  RH  093%=      5-min Rain = 0.02
KRLS 082045Z 34007KT 00/M01 A3025 RMK A01 T00011010  RH  093%=      5-min Rain = 0.01
KRLS 082050Z 34008KT 00/01 A3025 RMK A01 T00-00-11  RH  093%=      5-min Rain = 0
KRLS 082055Z 34007KT 00/01 A3025 RMK A01 T00-00-11  RH  093%=      5-min Rain = 0
KRLS 082100Z 34008KT M00/M01 A3025 RMK A01 T10011011  RH  093%=      5-min Rain = 0.01
KRLS 082105Z 34007KT 00/01 A3025 RMK A01 T00000-11  RH  093%=      5-min Rain = 0
KRLS 082110Z 34008KT 00/01 A3025 RMK A01 T00-00-11  RH  093%=      5-min Rain = 0
KRLS 082115Z 34007KT 00/01 A3025 RMK A01 T00000-11  RH  093%=      5-min Rain = 0.01
KRLS 082120Z 35007KT M00/M01 A3025 RMK A01 T10011012  RH  093%=      5-min Rain = 0.01
KRLS 082125Z 34007KT M00/M01 A3025 RMK A01 T10011012  RH  093%=      5-min Rain = 0
KRLS 082130Z 34007KT M00/M01 A3025 RMK A01 T10011013  RH  092%=      5-min Rain = 0.01
KRLS 082135Z 33007KT M00/M01 A3025 RMK A01 T10011014  RH  092%=      5-min Rain = 0
KRLS 082140Z 33008KT M00/M01 A3025 RMK A01 T10021014  RH  092%=      5-min Rain = 0
KRLS 082145Z 33007KT M00/M02 A3025 RMK A01 T10021015  RH  092%=      5-min Rain = 0.01
KRLS 082150Z 33007KT M00/M02 A3025 RMK A01 T10021015  RH  092%=      5-min Rain = 0
KRLS 082155Z 33008KT M00/M02 A3025 RMK A01 T10031016  RH  091%=      5-min Rain = 0
KRLS 082200Z 33007KT M00/M02 A3025 RMK A01 T10031017  RH  091%=      5-min Rain = 0
KRLS 082205Z 33008KT M00/M02 A3025 RMK A01 T10031018  RH  091%=      5-min Rain = 0.01
KRLS 082210Z 34007KT M00/M02 A3025 RMK A01 T10031018  RH  091%=      5-min Rain = 0
KRLS 082215Z 33008KT M00/M02 A3025 RMK A01 T10031018  RH  090%=      5-min Rain = 0
KRLS 082220Z 33007KT M00/M02 A3025 RMK A01 T10031018  RH  091%=      5-min Rain = 0
KRLS 082225Z 33008KT M00/M02 A3025 RMK A01 T10041019  RH  090%=      5-min Rain = 0
KRLS 082230Z 33007KT M01/M02 A3025 RMK A01 T10051021  RH  090%=      5-min Rain = 0
KRLS 082235Z 33007KT M01/M02 A3025 RMK A01 T10061023  RH  089%=      5-min Rain = 0.01
KRLS 082240Z 33007KT M01/M02 A3025 RMK A01 T10061023  RH  089%=      5-min Rain = 0
KRLS 082245Z 33007KT M01/M02 A3025 RMK A01 T10051023  RH  088%=      5-min Rain = 0
KRLS 082250Z 34007KT M01/M02 A3025 RMK A01 T10051023  RH  088%=      5-min Rain = 0
KRLS 082255Z 34007KT M01/M02 A3025 RMK A01 T10051023  RH  088%=      5-min Rain = 0
KRLS 082300Z 34005KT M01/M02 A3025 RMK A01 T10061024  RH  088%=      5-min Rain = 0
KRLS 082305Z 34005KT M01/M02 A3025 RMK A01 T10061023  RH  089%=      5-min Rain = 0
KRLS 082310Z 33006KT M01/M02 A3025 RMK A01 T10061022  RH  089%=      5-min Rain = 0
KRLS 082315Z 32005KT M01/M02 A3025 RMK A01 T10051021  RH  090%=      5-min Rain = 0
KRLS 082320Z 33006KT M01/M02 A3025 RMK A01 T10051020  RH  090%=      5-min Rain = 0
KRLS 082325Z 33006KT M01/M02 A3025 RMK A01 T10051020  RH  090%=      5-min Rain = 0
KRLS 082330Z 33005KT M01/M02 A3025 RMK A01 T10051020  RH  091%=      5-min Rain = 0
KRLS 082335Z 33005KT M01/M02 A3025 RMK A01 T10051020  RH  090%=      5-min Rain = 0
KRLS 082340Z 33005KT M01/M02 A3025 RMK A01 T10061021  RH  090%=      5-min Rain = 0
KRLS 082345Z 34004KT M01/M02 A3025 RMK A01 T10061020  RH  090%=      5-min Rain = 0
KRLS 082350Z 34004KT M01/M02 A3025 RMK A01 T10051020  RH  091%=      5-min Rain = 0
KRLS 082355Z 34003KT M01/M02 A3025 RMK A01 T10051020  RH  091%=      5-min Rain = 0
KRLS 090000Z 34004KT M01/M02 A3025 RMK A01 T10061020  RH  091%=      5-min Rain = 0
KRLS 090005Z 34004KT M01/M02 A3025 RMK A01 T10061021  RH  091%=      5-min Rain = 0
KRLS 090010Z 34003KT M01/M02 A3025 RMK A01 T10071022  RH  091%=      5-min Rain = 0
KRLS 090015Z 33003KT M01/M02 A3025 RMK A01 T10091024  RH  090%=      5-min Rain = 0
KRLS 090020Z 32003KT M01/M03 A3026 RMK A01 T10111026  RH  090%=      5-min Rain = 0
KRLS 090025Z 32003KT M01/M02 A3026 RMK A01 T10101024  RH  091%=      5-min Rain = 0
KRLS 090030Z 31003KT M01/M02 A3026 RMK A01 T10101024  RH  091%=      5-min Rain = 0
KRLS 090035Z 31002KT M01/M03 A3026 RMK A01 T10131027  RH  091%=      5-min Rain = 0
KRLS 090040Z 31002KT M02/M03 A3026 RMK A01 T10151028  RH  091%=      5-min Rain = 0
KRLS 090045Z 29002KT M02/M03 A3026 RMK A01 T10151028  RH  092%=      5-min Rain = 0
KRLS 090050Z 28002KT M02/M03 A3027 RMK A01 T10181031  RH  092%=      5-min Rain = 0
KRLS 090055Z 28003KT M02/M03 A3027 RMK A01 T10211034  RH  092%=      5-min Rain = 0
KRLS 090100Z 29005KT M03/M04 A3028 RMK A01 T10271040  RH  091%=      5-min Rain = 0
KRLS 090105Z 29005KT M03/M04 A3028 RMK A01 T10261038  RH  092%=      5-min Rain = 0
KRLS 090110Z 29005KT M02/M04 A3028 RMK A01 T10241036  RH  092%=      5-min Rain = 0
KRLS 090115Z 29004KT M02/M04 A3028 RMK A01 T10241036  RH  092%=      5-min Rain = 0
KRLS 090120Z 29004KT M03/M04 A3028 RMK A01 T10251037  RH  092%=      5-min Rain = 0
KRLS 090125Z 30004KT M03/M04 A3027 RMK A01 T10261038  RH  092%=      5-min Rain = 0
KRLS 090130Z 30003KT M03/M04 A3027 RMK A01 T10291041  RH  092%=      5-min Rain = 0
KRLS 090135Z 29003KT M03/M04 A3027 RMK A01 T10321044  RH  092%=      5-min Rain = 0
KRLS 090140Z 29002KT M03/M05 A3027 RMK A01 T10331045  RH  092%=      5-min Rain = 0
KRLS 090145Z 29002KT M04/M05 A3028 RMK A01 T10351047  RH  092%=      5-min Rain = 0
KRLS 090150Z 30002KT M04/M05 A3028 RMK A01 T10371048  RH  092%=      5-min Rain = 0
KRLS 090155Z 30004KT M04/M05 A3028 RMK A01 T10371049  RH  092%=      5-min Rain = 0
KRLS 090200Z 31005KT M04/M05 A3028 RMK A01 T10371049  RH  092%=      5-min Rain = 0
KRLS 090205Z 31005KT M03/M04 A3028 RMK A01 T10311042  RH  093%=      5-min Rain = 0
KRLS 090210Z 31005KT M04/M05 A3028 RMK A01 T10351046  RH  092%=      5-min Rain = 0
KRLS 090215Z 31005KT M04/M05 A3028 RMK A01 T10381050  RH  092%=      5-min Rain = 0
KRLS 090220Z 30004KT M04/M05 A3028 RMK A01 T10411052  RH  092%=      5-min Rain = 0
KRLS 090225Z 31004KT M04/M06 A3028 RMK A01 T10441055  RH  092%=      5-min Rain = 0
KRLS 090230Z 31004KT M04/M05 A3028 RMK A01 T10421054  RH  092%=      5-min Rain = 0
KRLS 090235Z 31005KT M05/M06 A3028 RMK A01 T10451057  RH  092%=      5-min Rain = 0
KRLS 090240Z 31005KT M05/M06 A3028 RMK A01 T10481061  RH  091%=      5-min Rain = 0
KRLS 090245Z 31004KT M05/M06 A3028 RMK A01 T10491061  RH  091%=      5-min Rain = 0
KRLS 090250Z 31004KT M05/M06 A3028 RMK A01 T10511064  RH  091%=      5-min Rain = 0
KRLS 090255Z 30003KT M05/M07 A3028 RMK A01 T10521065  RH  091%=      5-min Rain = 0
KRLS 090300Z 29003KT M05/M06 A3028 RMK A01 T10491061  RH  091%=      5-min Rain = 0
KRLS 090305Z 29003KT M05/M06 A3028 RMK A01 T10481061  RH  091%=      5-min Rain = 0
KRLS 090310Z 28003KT M05/M06 A3028 RMK A01 T10481061  RH  091%=      5-min Rain = 0
KRLS 090315Z 30003KT M05/M07 A3028 RMK A01 T10511065  RH  091%=      5-min Rain = 0
KRLS 090320Z 29003KT M05/M07 A3028 RMK A01 T10531067  RH  090%=      5-min Rain = 0
KRLS 090325Z 29004KT M06/M07 A3029 RMK A01 T10551069  RH  090%=      5-min Rain = 0
KRLS 090330Z 29004KT M06/M07 A3029 RMK A01 T10561070  RH  090%=      5-min Rain = 0
KRLS 090335Z 30004KT M06/M07 A3029 RMK A01 T10581072  RH  090%=      5-min Rain = 0
KRLS 090340Z 30003KT M06/M08 A3029 RMK A01 T10601075  RH  089%=      5-min Rain = 0
KRLS 090345Z 29004KT M06/M08 A3029 RMK A01 T10621077  RH  089%=      5-min Rain = 0
KRLS 090350Z 28004KT M07/M08 A303 RMK A01 T10661082  RH  089%=      5-min Rain = 0
KRLS 090355Z 29004KT M07/M08 A303 RMK A01 T10681084  RH  089%=      5-min Rain = 0
KRLS 090400Z 29004KT M07/M09 A303 RMK A01 T10691085  RH  088%=      5-min Rain = 0
KRLS 090405Z 30005KT M07/M08 A303 RMK A01 T10681084  RH  088%=      5-min Rain = 0
KRLS 090410Z 29005KT M07/M09 A303 RMK A01 T10701086  RH  088%=      5-min Rain = 0
KRLS 090415Z 29004KT M07/M09 A303 RMK A01 T10721088  RH  088%=      5-min Rain = 0
KRLS 090420Z 29004KT M07/M09 A303 RMK A01 T10721089  RH  088%=      5-min Rain = 0
KRLS 090425Z 29004KT M07/M09 A303 RMK A01 T10711087  RH  088%=      5-min Rain = 0
KRLS 090430Z 29005KT M07/M09 A303 RMK A01 T10691085  RH  088%=      5-min Rain = 0
KRLS 090435Z 29004KT M07/M09 A303 RMK A01 T10691085  RH  088%=      5-min Rain = 0
KRLS 090440Z 28004KT M07/M09 A303 RMK A01 T10701086  RH  088%=      5-min Rain = 0
KRLS 090445Z 28005KT M07/M09 A3031 RMK A01 T10721088  RH  088%=      5-min Rain = 0
KRLS 090450Z 28005KT M07/M09 A3031 RMK A01 T10711087  RH  088%=      5-min Rain = 0
KRLS 090455Z 29006KT M07/M09 A3031 RMK A01 T10691085  RH  088%=      5-min Rain = 0
KRLS 090500Z 29005KT M07/M09 A3031 RMK A01 T10731089  RH  088%=      5-min Rain = 0
KRLS 090505Z 28005KT M07/M09 A3031 RMK A01 T10731089  RH  088%=      5-min Rain = 0
KRLS 090510Z 29005KT M07/M09 A3031 RMK A01 T10741091  RH  088%=      5-min Rain = 0
KRLS 090515Z 28005KT M08/M09 A3031 RMK A01 T10751092  RH  087%=      5-min Rain = 0
KRLS 090520Z 28003KT M08/M09 A3031 RMK A01 T10761093  RH  087%=      5-min Rain = 0
KRLS 090525Z 28004KT M08/M09 A3031 RMK A01 T10761094  RH  087%=      5-min Rain = 0
KRLS 090530Z 28005KT M08/M10 A3031 RMK A01 T10771095  RH  087%=      5-min Rain = 0
KRLS 090535Z 29006KT M08/M10 A3031 RMK A01 T10821100  RH  087%=      5-min Rain = 0
KRLS 090540Z 29005KT M08/M10 A3031 RMK A01 T10791097  RH  087%=      5-min Rain = 0
KRLS 090545Z 29005KT M08/M10 A3031 RMK A01 T10781096  RH  087%=      5-min Rain = 0
KRLS 090550Z 30004KT M08/M10 A3031 RMK A01 T10791097  RH  087%=      5-min Rain = 0
KRLS 090555Z 29003KT M08/M10 A3031 RMK A01 T10801098  RH  087%=      5-min Rain = 0

Page generated in 0.0089 seconds.